Location: Carbonear
(47.7333°N, 53.2500°W)
Time: 05:25:06
(UTC+00:00)

AO-27 - Pass Details

Date: 08 December 2022
Orbit: 784 x 798 km, 98.9° (Epoch: 28 January)

Event Time Altitude Azimuth Distance (km) Brightness Sun altitude
Exits shadow 22:30:10 20° 358° (N) 1,803 9.5 -27.4°
Drops below altitude 10° 22:31:43 10° 353° (N) 2,382 10.2 -27.7°
Sets 22:34:05 0° 349° (N) 3,316 11.0 -28.1°
